FW6085 Weather Reports


Display with metric or nautical units.
time (UTC)temp
F
wind
direction
speed
MPH
gust
MPH
rain 1hr
in
rain 24hr
in
rain mn
in
humidity
%
barometer
mb
20260506033114 47 0 0.0 0.0 0.00 0.06 0.06 88 1009.4
20260506031553 47 0 0.0 2.0 0.00 0.06 0.06 88 1009.7
20260506030100 48 247 0.0 4.0 0.00 0.06 0.06 87 1009.7
20260506024608 49 235 0.0 2.0 0.00 0.06 0.06 86 1009.7
20260506023102 49 235 0.0 2.0 0.00 0.06 0.06 85 1009.8
20260506021557 49 261 0.0 4.0 0.00 0.06 0.06 85 1009.9
20260506020052 50 0 1.0 8.0 0.00 0.06 0.06 84 1009.7
20260506014553 50 214 3.0 11.0 0.00 0.06 0.06 84 1009.4
20260506013101 51 227 2.0 7.0 0.00 0.06 0.06 83 1009.3
20260506011610 52 234 2.0 6.0 0.00 0.06 0.06 83 1009.0
20260506010059 52 224 2.0 8.0 0.00 0.06 0.06 82 1008.9
20260506004557 53 236 4.0 15.0 0.00 0.06 0.06 80 1008.7
20260506003057 55 237 2.0 8.0 0.00 0.06 0.06 81 1009.0
20260506001558 58 210 3.0 10.0 0.00 0.06 0.06 85 1009.0
20260505234554 59 220 2.0 7.0 0.00 0.06 0.06 86 1007.7
20260505233056 60 229 2.0 9.0 0.00 0.06 0.06 84 1007.3
20260505231555 62 236 2.0 7.0 0.00 0.06 0.06 79 1007.4
20260505224605 63 214 1.0 6.0 0.00 0.06 0.06 75 1006.5
20260505223109 65 178 4.0 9.0 0.00 0.06 0.06 69 1006.3
20260505221602 65 0 0.0 6.0 0.00 0.06 0.06 71 1006.0
20260505220103 66 247 2.0 8.0 0.00 0.06 0.06 71 1005.7
20260505214553 68 199 1.0 13.0 0.00 0.06 0.06 67 1005.7
20260505213051 69 143 3.0 8.0 0.00 0.06 0.06 67 1005.6
20260505211551 69 174 3.0 9.0 0.00 0.06 0.06 66 1005.3
20260505210054 68 155 2.0 9.0 0.00 0.06 0.06 69 1005.2
20260505204601 67 138 4.0 10.0 0.00 0.06 0.06 71 1005.5
20260505203107 66 143 2.0 8.0 0.01 0.06 0.06 74 1005.5
20260505201555 65 135 3.0 8.0 0.02 0.06 0.06 79 1005.8
20260505200054 62 132 3.0 9.0 0.03 0.06 0.06 83 1006.2
20260505194600 62 148 3.0 12.0 0.03 0.06 0.06 83 1006.6
20260505193051 62 148 2.0 8.0 0.02 0.05 0.05 82 1006.8
20260505191550 65 138 3.0 8.0 0.01 0.04 0.04 75 1006.6
20260505190048 67 150 1.0 5.0 0.00 0.03 0.03 69 1006.0
20260505184553 67 201 1.0 6.0 0.00 0.03 0.03 67 1005.7
20260505183053 70 187 3.0 9.0 0.00 0.03 0.03 55 1005.1
20260505181549 73 136 4.0 15.0 0.00 0.03 0.03 47 1004.8
20260505180051 73 148 4.0 15.0 0.00 0.03 0.03 47 1004.8
20260505174549 73 0 3.0 10.0 0.00 0.03 0.03 50 1005.1
20260505173053 73 147 4.0 12.0 0.00 0.03 0.03 48 1005.3
20260505171550 71 241 2.0 7.0 0.00 0.03 0.03 50 1005.8
20260505170050 72 146 3.0 14.0 0.00 0.03 0.03 49 1005.6
20260505164600 72 143 5.0 13.0 0.00 0.03 0.03 48 1005.7
20260505163053 73 131 4.0 17.0 0.00 0.03 0.03 49 1005.1
20260505161556 73 131 3.0 16.0 0.00 0.03 0.03 48 1005.2
20260505153106 75 140 4.0 11.0 0.00 0.03 0.03 47 1005.7
20260505151553 74 145 3.0 18.0 0.00 0.03 0.03 49 1005.5
20260505124559 66 138 5.0 13.0 0.00 0.03 0.03 59 1005.6
20260505123059 65 155 5.0 12.0 0.00 0.03 0.03 62 1006.0
20260505121553 64 137 4.0 12.0 0.00 0.03 0.03 65 1006.0
20260505120103 61 150 4.0 10.0 0.00 0.03 0.03 68 1006.0
20260505114555 60 135 4.0 9.0 0.00 0.03 0.03 71 1005.9
20260505113113 59 138 4.0 11.0 0.00 0.03 0.03 73 1005.9
20260505111554 59 143 4.0 10.0 0.00 0.03 0.03 74 1005.8
20260505101600 57 138 3.0 9.0 0.03 0.03 0.03 80 1005.2
20260505100055 60 132 7.0 17.0 0.03 0.03 0.03 72 1005.8
20260505094558 61 0 2.0 7.0 0.00 0.00 0.00 62 1005.7
20260505093102 61 140 4.0 8.0 0.00 0.00 0.00 63 1005.3
20260505091553 60 147 3.0 9.0 0.00 0.00 0.00 64 1005.3
20260505090059 59 125 1.0 6.0 0.00 0.00 0.00 64 1005.2
20260505084555 59 133 2.0 6.0 0.00 0.00 0.00 64 1004.9
20260505083105 60 134 1.0 7.0 0.00 0.00 0.00 63 1005.0
20260505081601 60 129 2.0 5.0 0.00 0.00 0.00 63 1005.1
20260505080108 60 122 3.0 6.0 0.00 0.00 0.00 62 1005.0
20260505074557 61 121 2.0 5.0 0.00 0.00 0.00 62 1005.1
20260505073101 61 115 3.0 8.0 0.00 0.00 0.00 61 1004.9
20260505071606 61 150 3.0 10.0 0.00 0.00 0.00 61 1005.0
20260505070053 61 138 2.0 7.0 0.00 0.00 0.00 61 1005.0
20260505064600 61 139 3.0 9.0 0.00 0.00 0.00 60 1005.2
20260505063102 61 133 3.0 9.0 0.00 0.00 0.00 59 1005.2
20260505061557 61 130 3.0 7.0 0.00 0.00 0.00 59 1005.2
20260505060100 62 141 4.0 10.0 0.00 0.00 0.00 58 1005.1
20260505054554 62 129 4.0 7.0 0.00 0.00 0.00 58 1005.2
20260505053111 61 135 3.0 6.0 0.00 0.00 0.00 57 1005.4
20260505051549 61 140 2.0 8.0 0.00 0.00 0.00 57 1005.4
20260505050104 61 136 3.0 8.0 0.00 0.00 0.00 56 1005.5
20260505041553 61 136 3.0 9.0 0.00 0.00 0.00 55 1005.6
20260505040057 61 131 6.0 10.0 0.00 0.00 0.00 54 1005.4
20260505034612 61 130 3.0 7.0 0.00 0.00 0.00 54 1005.3